Regional Weather Roundup
Issued by NWS Albany, NY

Home | Current Version | Previous Version | Text Only | Print | Product List | Glossary On
Versions: 1 2 3 4 5 6 7 8 9 10 11 12 13 14 15 16 17 18 19 20 21 22 23 24 25 26 27 28 29 30 31 32 33 34 35 36 37 38 39 40 41 42 43 44 45 46 47 48 49 50
000
ASUS41 KALY 250810
RWRALY

NEW YORK STATE HOURLY WEATHER ROUNDUP
NATIONAL WEATHER SERVICE ALBANY NY
400 AM EDT FRI JUL 25 2014

NOTE: "FAIR" INDICATES FEW OR NO CLOUDS BELOW 12,000 FEET WITH NO
SIGNIFICANT WEATHER AND/OR NO OBSTRUCTIONS TO VISIBILITY.

NYZ032-033-038>043-046>054-057>066-NYZ062>081-250900-
EAST


CITY           SKY/WX    TMP DP  RH WIND       PRES   REMARKS
ALBANY         CLEAR     58  50  75 W3        29.99S
GLENS FALLS    CLEAR     53  51  93 CALM      29.98S
POUGHKEEPSIE   CLEAR     58  55  90 CALM      29.98R
NEWBURGH       CLEAR     57  55  94 CALM      29.99R
MONTGOMERY     CLEAR     54  52  93 CALM      29.99R
WHITE PLAINS   MOCLDY    63  53  70 N10       29.95R
ISLIP          MOCLDY    67  56  67 N9        29.92R
NEW YORK CITY  PTCLDY    69  54  58 N9        29.94S
CENTRAL PARK   PTCLDY    67  54  63 CALM      29.98R
$$

NYZ005>009-017-018-044>046-055-056-250900-
CENTRAL


CITY           SKY/WX    TMP DP  RH WIND       PRES   REMARKS
FULTON         CLEAR     52  50  93 CALM      30.01S
SYRACUSE       CLEAR     57  51  80 CALM      30.01S
ROME           CLEAR     51  49  92 CALM      30.02F
ELMIRA         CLEAR     46  45  93 CALM      30.04F FOG
BINGHAMTON     CLEAR     51  47  86 CALM      30.03F
MONTICELLO     CLEAR     54  48  82 NW3       30.02S
$$

NYZ026>034-041>043-250900-
NORTH


CITY           SKY/WX    TMP DP  RH WIND       PRES   REMARKS
WATERTOWN      CLEAR     58  53  84 S5        29.98F
FORT DRUM      NOT AVBL
MASSENA        PTCLDY    57  56  96 SW7       29.96S
SARANAC LAKE   CLEAR     44  42  93 CALM      29.99S
PLATTSBURGH    CLEAR     52  51  97 CALM      29.94S
$$

NYZ001>004-010>016-019>021-250900-
WEST


CITY           SKY/WX    TMP DP  RH WIND       PRES   REMARKS
NIAGARA FALLS  CLEAR     54  50  86 CALM      30.02F
BUFFALO        CLEAR     55  49  80 SE6       30.03F
DUNKIRK        CLEAR     55  49  80 S5        30.04S
JAMESTOWN      CLEAR     48  46  93 S3        30.07S
WELLSVILLE     CLEAR     49  44  83 CALM      30.07S
ROCHESTER      PTCLDY    53  51  93 SW3       30.03S
PENN YAN       CLEAR     55  52  89 SW6       30.04S
$$

             KEY
       WCI = WIND CHILL INDEX
       VSB = VISIBILITY
       HX  = HEAT INDEX
$$



USA.gov is the U.S. government's official web portal to all federal, state and local government web resources and services.